Weather History for Jersey, United Kingdom

Change the Weather History Date:

Saturday, October 6, 2012

  Actual Average Record
Temperature  
Mean Temperature 59 °F -  
Max Temperature 61 °F 57 °F 66 °F (1997)
Min Temperature 56 °F 50 °F 42 °F (1999)
Degree Days  
Heating Degree Days 6    
Growing Degree Days 9 (Base 50)    
Moisture  
Dew Point 58 °F    
Average Humidity 97    
Maximum Humidity 100    
Minimum Humidity 86    
Precipitation  
Precipitation 0.00 in - - ()
Sea Level Pressure  
Sea Level Pressure 29.86 in    
Wind  
Wind Speed 11 mph ()    
Max Wind Speed 25 mph    
Max Gust Speed -    
Visibility 3.7 miles    
Events Fog , Rain    
Averages and records for this station are not official NWS values.
T = Trace of Precipitation, MM = Missing Value Source: Averaged Metar Reports

Daily Weather History Graph

Daily Weather History Graph

Search for Another Location

Airport:

Trip Planner

Search our weather history database for the weather conditions in past years. The results will help you decide how hot, cold, wet, or windy it might be!

Date:

Astronomy

Oct. 06, 2012 Rise Set
Actual Time 7:16 AM BST 6:36 PM BST
Civil Twilight 6:44 AM BST 7:08 PM BST
Nautical Twilight 6:07 AM BST 7:44 PM BST
Astronomical Twilight 5:30 AM BST 8:21 PM BST
Moon 10:14 PM BST (10/6) 1:24 PM BST (10/6)
Length of Visible Light 12h 23m
Length of Day
11h 20m
Waning Gibbous, 67% of the Moon is Illuminated
Oct 6
Waning Gibbous
Oct 8
Last Quarter
Oct 15
New
Oct 22
First Quarter
Oct 29
Full

Hourly Weather History & Observations

Time (BST) Temp. Dew Point Humidity Pressure Visibility Wind Dir Wind Speed Gust Speed Precip Events Conditions
1:00 AM 60 °F 57 °F 87% 29.83 in 16 mi SSW 15.0 mph - -   Scattered Clouds
3:50 AM 60.8 °F 57.2 °F 88% 29.80 in 6.2 mi SW 16.1 mph - N/A Rain Light Rain
4:00 AM 60 °F 57 °F 86% 29.81 in 6 mi SW 17.3 mph - - Rain Light Rain
4:20 AM 59.0 °F 57.2 °F 94% 29.80 in 6.2 mi WSW 17.3 mph - N/A Rain Light Rain
4:50 AM 59.0 °F 57.2 °F 94% 29.80 in 5.6 mi SW 18.4 mph - N/A Rain Light Rain
5:20 AM 59.0 °F 57.2 °F 94% 29.80 in 5.6 mi SW 16.1 mph - N/A Rain Rain
5:50 AM 59.0 °F 57.2 °F 94% 29.80 in 5.6 mi SW 16.1 mph - N/A Rain Rain
6:20 AM 60.8 °F 59.0 °F 94% 29.80 in 5.0 mi SSW 15.0 mph - N/A Rain Rain
6:50 AM 59.0 °F 59.0 °F 100% 29.80 in 5.0 mi SW 25.3 mph - N/A Rain Rain
7:00 AM 60 °F 58 °F 93% 29.81 in 5 mi SSW 21.9 mph - - Rain Rain
7:20 AM 60.8 °F 59.0 °F 94% 29.80 in 3.1 mi SW 20.7 mph - N/A Rain Light Rain
7:50 AM 60.8 °F 60.8 °F 100% 29.83 in 3.1 mi SW 24.2 mph - N/A Rain Light Rain
8:20 AM 60.8 °F 60.8 °F 100% 29.83 in 3.1 mi SW 19.6 mph - N/A Rain Light Rain
8:50 AM 60.8 °F 60.8 °F 100% 29.83 in 6.2 mi WSW 19.6 mph - N/A   Mostly Cloudy
9:20 AM 59.0 °F 57.2 °F 94% 29.86 in 6.2 mi North 8.1 mph - N/A   Mostly Cloudy
9:50 AM 57.2 °F 55.4 °F 94% 29.86 in 6.2 mi NNE 6.9 mph - N/A   Mostly Cloudy
10:00 AM 57 °F 56 °F 95% 29.88 in 12 mi NNE 4.6 mph - - Rain Light Rain
10:20 AM 57.2 °F 55.4 °F 94% 29.86 in 6.2 mi NE 3.5 mph - N/A Rain Light Rain
10:50 AM 57.2 °F 57.2 °F 100% 29.86 in 5.0 mi ENE 6.9 mph - N/A Rain Light Rain
11:20 AM 57.2 °F 55.4 °F 94% 29.86 in 3.1 mi ENE 5.8 mph - N/A Rain Light Rain
11:50 AM 57.2 °F 57.2 °F 100% 29.86 in 1.9 mi ENE 5.8 mph - N/A Rain Rain
12:20 PM 59.0 °F 57.2 °F 94% 29.86 in 2.5 mi West 6.9 mph - N/A   Light Drizzle
12:50 PM 59.0 °F 59.0 °F 100% 29.86 in 2.5 mi WSW 4.6 mph - N/A Rain Light Rain
1:00 PM 59 °F 58 °F 95% 29.88 in 2 mi West 4.6 mph - - Rain Light Rain
1:20 PM 59.0 °F 59.0 °F 100% 29.86 in 2.5 mi West 4.6 mph - N/A Rain Rain
1:50 PM 59.0 °F 59.0 °F 100% 29.86 in 2.2 mi WNW 3.5 mph - N/A Rain Light Rain
2:20 PM 59.0 °F 59.0 °F 100% 29.86 in 2.5 mi Variable 1.2 mph - N/A Rain Rain
2:50 PM 59.0 °F 59.0 °F 100% 29.86 in 2.5 mi Variable 3.5 mph - N/A Rain Rain
3:20 PM 59.0 °F 59.0 °F 100% 29.86 in 2.2 mi Variable 5.8 mph - N/A Rain Rain
3:50 PM 59.0 °F 59.0 °F 100% 29.86 in 2.5 mi Variable 1.2 mph - N/A Rain Rain
4:00 PM 60 °F 59 °F 94% 29.87 in 2 mi North 3.5 mph - - Rain Heavy Rain
4:20 PM 60.8 °F 60.8 °F 100% 29.86 in 1.6 mi SW 10.4 mph - N/A Rain Light Rain
4:50 PM 60.8 °F 59.0 °F 94% 29.86 in 0.7 mi SW 11.5 mph - N/A Rain Rain
5:20 PM 60.8 °F 60.8 °F 100% 29.86 in 0.9 mi WSW 5.8 mph - N/A Fog , Rain Light Rain
5:50 PM 60.8 °F 60.8 °F 100% 29.86 in 0.9 mi SW 9.2 mph - N/A Rain Rain
6:20 PM 60.8 °F 59.0 °F 94% 29.89 in 0.7 mi WSW 5.8 mph - N/A Rain Light Rain
6:50 PM 59.0 °F 59.0 °F 100% 29.89 in 0.7 mi Variable 2.3 mph - N/A Rain Rain
7:00 PM 60 °F 59 °F 97% 29.89 in 0 mi NW 3.5 mph - - Rain Heavy Rain
7:20 PM 59.0 °F 59.0 °F 100% 29.89 in 1.9 mi Variable 3.5 mph - N/A Rain Rain
7:50 PM 57.2 °F 57.2 °F 100% 29.92 in 0.9 mi NE 5.8 mph - N/A   Drizzle
8:20 PM 57.2 °F 57.2 °F 100% 29.92 in 1.6 mi ENE 9.2 mph - N/A   Light Drizzle
8:50 PM 57.2 °F 57.2 °F 100% 29.92 in 2.5 mi ENE 12.7 mph - N/A   Light Drizzle
9:20 PM 57.2 °F 55.4 °F 94% 29.92 in 2.2 mi ENE 12.7 mph - N/A   Light Drizzle
10:00 PM 56 °F 56 °F 99% 29.95 in 2 mi ENE 12.7 mph - - Rain Light Drizzle